Location: Unspecified
(54.1780°N, 0.0000°E)
Time: 21:12:00
(UTC+00:00)

Transit 2A - Pass Details

Date: 26 June 2019
Orbit: 597 x 962 km, 66.7° (Epoch: 21 August)

Event Time Altitude Azimuth Distance (km) Brightness Sun altitude
Rises 23:51:55 0° 211° (SSW) 3,633 - -12.4°
Reaches altitude 10° 23:54:29 10° 209° (SSW) 2,694 - -12.4°
Exits shadow 23:54:48 12° 209° (SSW) 2,582 8.2 -12.4°
Maximum altitude 00:00:49 73° 126° (SE) 995 6.4 -12.4°
Drops below altitude 10° 00:06:57 10° 44° (NE) 2,607 9.5 -12.4°
Sets 00:09:24 0° 42° (NE) 3,509 10.2 -12.4°
